Location: Joplin, MO
(37.0842°N, 94.5133°W)
Time: 11:12:47
(UTC+02:00)

deb Explorer IX - Visible Passes

Search period start: 29 March 2023 00:00
Search period end: 08 April 2023 00:00
Orbit: 536 x 1029 km, 38.8° (Epoch: 28 March)

Date Brightness Start Highest point End Pass type
(mag) Time Alt. Az. Time Alt. Az. Time Alt. Az.
29 Mar ? 11:53:59 15° SSE 11:54:09 15° SSE 11:56:43 10° ESE visible
29 Mar ? 13:35:11 10° SW 13:39:41 53° SSE 13:43:46 10° E visible
30 Mar ? 11:20:37 11° ESE 11:20:37 11° ESE 11:21:12 10° ESE visible
30 Mar ? 13:01:05 17° SW 13:04:28 48° SSE 13:08:36 10° E visible
31 Mar ? 12:27:36 32° SSW 12:29:11 43° SSE 12:33:23 10° E visible
01 Apr ? 11:54:00 39° SSE 11:54:00 39° SSE 11:58:07 10° E visible
01 Apr ? 13:34:52 10° W 13:39:40 84° NNW 13:43:56 10° ENE visible
02 Apr ? 11:20:18 26° ESE 11:20:18 26° ESE 11:22:47 10° E visible
02 Apr ? 13:00:44 19° WSW 13:04:16 89° NNW 13:08:39 10° ENE visible
03 Apr ? 10:46:30 15° E 10:46:30 15° E 10:47:22 10° E visible
03 Apr ? 12:26:56 39° WSW 12:28:47 85° SSE 12:33:19 10° ENE visible
04 Apr ? 11:53:04 78° SSW 11:53:15 80° SSE 11:57:57 10° ENE visible
05 Apr ? 11:19:08 46° E 11:19:08 46° E 11:22:31 10° ENE visible
05 Apr ? 12:59:33 15° W 13:03:47 71° N 13:08:14 10° E visible
06 Apr ? 10:45:07 24° E 10:45:07 24° E 10:47:01 10° ENE visible
06 Apr ? 12:25:33 30° W 12:28:07 73° N 12:32:45 10° E visible
07 Apr ? 10:11:05 12° E 10:11:05 12° E 10:11:27 10° ENE visible
07 Apr ? 11:51:30 59° WNW 11:52:24 75° N 11:57:13 10° E visible
